Regional Weather Roundup
Issued by NWS

Home | Current Version | Previous Version | Graphics & Text | Print | Product List | Glossary On
Versions: 1 2 3 4 5 6 7 8 9 10 11 12 13 14 15 16 17 18 19 20 21 22 23 24 25 26 27 28 29 30 31 32 33 34 35 36 37 38 39 40 41 42 43 44 45 46 47 48 49 50
851
ASUS43 KFSD 121702
RWRSD

WEATHER ROUNDUP FOR SOUTH DAKOTA
NATIONAL WEATHER SERVICE SIOUX FALLS SD
1100 AM CST FRI FEB 12 2016

NOTE: "FAIR" INDICATES FEW OR NO CLOUDS BELOW 12,000 FEET WITH NO
SIGNIFICANT WEATHER AND/OR OBSTRUCTIONS TO VISIBILITY.


SDZ001>005-009-010-012>017-121800-
NORTHWEST AND NORTH CENTRAL SOUTH DAKOTA

CITY           SKY/WX    TMP DP  RH WIND       PRES   REMARKS
BUFFALO          N/A     22  18  85 E8        30.35R WCI  12
FAITH            N/A     20  13  74 NE10      30.47R WCI   9
MOBRIDGE       SUNNY     14   4  64 N13       30.53R WCI   0
$$

SDZ012>016-024>037-041>051-057-063-072>074-121800-
SOUTHWEST AND SOUTH CENTRAL SOUTH DAKOTA

CITY           SKY/WX    TMP DP  RH WIND       PRES   REMARKS
RAPID CTY ARPT CLOUDY    28  26  92 E5        30.41R FOG     WCI  23
PIERRE         LGT SNOW  21  15  78 NE9       30.53R WCI  11
CUSTER         CLOUDY    26  23  88 S13G30    30.29S FOG     WCI  15
ELLSWORTH AFB  CLOUDY    27  27 100 E5        30.40  FOG     WCI  21
PHILIP         CLOUDY    25  17  72 E9        30.48S WCI  15
PINE RIDGE     CLOUDY    30  27  88 NE5       30.40S WCI  25
WINNER         CLOUDY    23  14  68 NE8       30.51R WCI  14
$$

SDZ004>011-016>023-039-040-121800-
NORTHEAST SOUTH DAKOTA

CITY           SKY/WX    TMP DP  RH WIND       PRES   REMARKS
ABERDEEN       SUNNY      8  -3  61 N17       30.61R WCI -10
WATERTOWN      CLOUDY     3  -6  66 N21       30.50R WCI -18
BROOKINGS      SUNNY      7  -4  60 N17       30.50R WCI -12
SISSETON         N/A      1  -7  68 N20       30.59R WCI -20
$$

SDZ017-020-022-023-036>040-048>070-121800-
SOUTHEAST SOUTH DAKOTA

CITY           SKY/WX    TMP DP  RH WIND       PRES   REMARKS
SIOUX FALLS    MOSUNNY   11  -1  58 N18       30.52R WCI  -7
HURON          SUNNY     13   4  67 N16       30.59R WCI  -3
MITCHELL       MOSUNNY   15   7  70 N17       30.58R WCI  -1
YANKTON        CLOUDY    18   9  68 N20G25    30.54R WCI   1
$$

ABBREVIATIONS USED IN REMARKS
   TC - TEMPERATURE IN CELSIUS
  WCI - WIND CHILL INDEX
   HX - HEAT INDEX
  VSB - VISIBILITY





USA.gov is the U.S. government's official web portal to all federal, state and local government web resources and services.